Location: ??
(35.5052°N, 139.7262°E)
Time: 18:12:29
(UTC+00:00)

Cosmos 540 Rocket - Pass Details

Date: 20 June 2021
Orbit: 739 x 754 km, 74.1° (Epoch: 29 July)

Event Time Altitude Azimuth Distance (km) Brightness Sun altitude
Exits shadow 15:13:27 39° 60° (ENE) 1,107 4.5 -30.6°
Drops below altitude 10° 15:17:01 10° 29° (NNE) 2,253 6.7 -30.5°
Sets 15:19:26 0° 24° (NNE) 3,182 7.8 -30.4°
